GPS BIIR-18M

Last updated on Tue Sep 16 2025 00:02:34 GMT+0000 (Coordinated Universal Time)

1 32384U 07062A 25257.44994933 .00000007 00000+0 00000+0 0 9996 2 32384 55.2558 285.2263 0032600 163.3563 282.3280 2.00572866129988
UTC large
Height (km)
Speed (km/s)
/
Latitude / Longitude
Inclination (degrees)
Orbital Period (minutes)
Azimuth
Elevation
Range (km)
Doppler Factor

Next 0 passes for location: London (51.5072 / 0.1276)

Sorry there are no passes over London.